Theta_e
356 355 354 352 353 353 352 350 350 350 350 350 352 352 353 355 357 358 357 357 356 356 356 355 354 353 352 352 351 351 350 349 348 346 343 342 341 340 340 340 340 339 338 337 337 339 339 338 340 340 340 340 340 339 338 337 336 336 338 339 340 341 340
357 355 354 352 353 354 352 350 350 350 350 351 352 354 355 357 358 358 358 357 356 355 355 354 352 352 352 351 351 350 348 347 343 342 341 339 338 340 338 336 337 338 338 339 338 338 338 338 339 339 338 338 339 338 336 335 336 338 339 340 340 340 340
358 356 355 353 353 354 352 351 350 351 351 351 352 355 357 357 357 358 358 356 355 354 354 352 351 352 350 349 349 347 345 343 341 340 341 341 341 340 336 334 338 340 339 338 338 338 338 338 336 336 336 336 337 337 336 336 338 339 339 339 338 338 338
359 358 355 354 354 353 352 351 350 351 351 350 353 355 357 357 357 358 357 356 354 353 352 351 351 350 348 346 345 343 342 341 341 340 340 341 341 339 337 338 340 340 338 337 337 338 337 335 335 335 337 337 338 338 338 337 337 336 337 337 337 338 338
359 359 357 356 355 354 354 352 350 352 351 351 353 355 356 357 357 357 355 354 353 351 352 352 350 348 345 343 343 343 342 341 342 341 340 339 339 339 339 339 338 338 337 336 336 336 335 335 335 336 337 338 339 339 338 336 336 336 337 337 338 338 337
359 360 358 357 356 355 355 353 351 351 352 352 354 355 356 356 355 354 353 353 352 351 350 349 347 345 343 342 342 342 341 341 341 341 341 339 339 340 340 337 337 336 335 335 336 335 334 334 335 337 337 337 338 337 336 336 337 339 339 338 337 336 336
360 359 358 357 356 356 356 353 352 352 352 353 353 354 355 354 353 353 352 351 350 348 346 345 345 344 343 343 343 343 341 340 339 340 342 340 339 340 339 337 336 336 335 335 335 335 334 335 337 338 338 337 337 336 335 336 338 338 338 337 336 336 335
361 360 358 357 355 355 354 352 351 351 351 351 351 352 352 352 352 351 351 349 346 345 344 343 344 344 343 343 343 342 340 340 340 340 341 340 340 341 339 336 336 335 336 336 335 336 336 337 339 339 338 338 338 336 336 337 337 337 337 336 336 336 335
360 359 358 356 354 353 350 348 348 349 349 348 348 349 349 350 351 349 348 345 343 344 344 343 343 343 342 342 341 340 340 341 341 341 341 341 340 340 339 338 337 336 336 336 336 338 339 339 340 339 339 339 338 338 338 338 338 338 337 337 337 336 336
359 358 358 356 353 351 346 345 347 346 345 344 344 345 346 348 348 346 346 343 342 344 344 343 343 342 341 341 340 339 340 341 341 341 342 343 341 338 339 340 339 338 338 338 338 339 339 340 340 339 339 339 338 339 338 338 338 338 339 338 338 337 337
359 358 357 355 352 350 347 346 346 343 342 342 341 342 344 344 345 345 345 343 341 343 344 343 342 343 343 342 341 341 341 341 342 342 343 342 342 341 341 341 340 340 340 340 340 339 339 339 339 338 339 339 339 339 339 339 339 339 339 338 338 338 337
357 358 357 354 350 349 348 347 345 341 341 341 339 341 343 342 344 345 344 343 342 342 344 343 342 343 343 343 343 343 343 343 343 343 343 342 342 343 342 342 341 341 341 341 340 340 339 339 339 339 339 339 339 339 339 339 339 338 338 338 338 338 338
356 356 355 353 350 347 348 347 344 341 341 341 340 341 341 341 344 344 343 343 342 342 344 344 343 343 344 344 345 343 343 344 343 343 342 342 342 342 342 341 341 341 341 341 341 340 341 341 340 340 340 340 340 339 339 339 339 339 339 338 338 338 338
355 354 354 353 350 347 347 347 345 341 341 342 340 340 340 341 342 341 340 342 342 341 344 344 343 343 343 344 345 344 342 343 344 343 343 343 343 342 341 341 340 341 341 341 341 341 341 341 341 340 340 340 340 339 339 339 339 339 338 338 338 339 339
354 353 353 352 349 347 346 345 345 343 341 342 340 340 340 340 340 341 341 342 342 342 344 344 343 343 343 343 343 344 344 343 344 343 343 343 342 342 341 341 341 341 341 341 341 341 341 341 341 341 340 340 340 339 339 339 338 338 338 338 338 337 336
354 352 352 351 348 346 345 345 345 342 341 343 341 339 341 340 339 342 344 344 343 343 344 344 344 343 343 343 344 344 344 344 343 343 343 343 342 342 342 342 341 341 341 341 341 341 341 341 341 340 339 339 339 338 338 337 335 335 336 336 335 333 332
354 352 352 351 348 346 345 345 345 342 342 343 341 339 341 340 339 343 346 345 343 344 345 345 345 343 343 344 344 344 345 344 344 343 343 343 343 343 342 342 342 342 341 341 341 341 342 341 340 339 338 338 337 335 335 334 334 334 333 332 331 330 330
354 353 354 353 350 347 346 346 346 344 344 345 343 340 340 341 340 343 346 346 344 344 345 346 346 345 344 344 344 344 345 343 343 344 343 343 343 343 343 342 342 342 341 341 341 341 341 339 338 337 336 335 335 333 332 332 333 333 331 329 329 329 329
354 354 356 353 351 349 347 346 346 345 346 347 346 343 341 342 341 342 345 347 346 345 346 346 346 345 346 346 345 345 344 343 344 344 343 343 343 342 343 342 342 342 341 341 341 340 339 337 336 334 333 332 332 331 330 330 330 330 329 329 329 330 330
355 356 356 353 351 351 347 345 344 345 346 347 348 346 345 344 341 340 342 344 347 347 347 346 346 346 346 346 346 346 345 344 344 344 343 343 343 342 342 341 342 341 340 340 339 338 336 334 332 331 331 330 329 329 329 328 329 329 329 330 331 331 331
357 357 355 353 352 351 347 344 344 345 346 346 347 349 349 348 345 343 342 344 347 348 347 347 346 347 346 347 347 346 345 343 343 343 343 342 342 342 342 341 341 340 339 338 337 335 333 331 330 330 329 328 328 328 329 329 329 330 331 331 331 331 331
359 356 353 352 350 349 346 344 344 345 345 346 347 349 350 350 349 348 347 348 348 348 348 348 347 347 347 346 346 345 344 343 343 343 342 341 341 342 341 340 340 339 338 337 334 332 330 329 328 328 328 328 329 330 330 329 329 330 332 332 331 331 330
356 352 350 349 348 348 346 345 345 345 344 345 346 347 349 349 350 351 350 351 351 351 350 349 349 348 346 345 344 343 342 341 341 342 341 341 342 341 340 339 339 338 337 335 333 331 329 328 327 328 329 330 330 330 330 330 330 331 332 332 331 330 331
351 348 347 348 349 349 347 346 347 345 344 345 345 345 348 349 350 350 350 351 351 351 352 351 349 348 346 345 344 341 340 340 340 341 342 341 341 340 339 338 338 337 335 333 332 330 329 328 328 329 330 330 330 330 331 331 331 330 330 330 329 328 329
351 348 348 351 351 349 348 348 348 347 347 347 346 346 347 347 349 349 349 349 349 350 351 351 349 348 346 344 342 341 341 341 341 341 341 341 340 339 338 337 335 333 330 330 330 329 328 329 329 329 330 330 330 331 331 329 328 326 326 326 324 324 326
355 353 352 353 352 350 350 349 349 349 348 348 348 349 348 347 348 348 348 348 348 348 349 348 347 346 344 343 342 342 341 341 341 341 341 339 338 336 335 333 331 328 327 328 329 328 328 329 329 330 331 331 331 330 327 325 324 324 326 325 323 323 325
356 355 354 353 352 351 350 349 349 349 348 348 348 348 347 347 348 347 347 347 346 345 345 346 345 344 343 343 343 341 341 342 341 340 337 335 333 332 332 330 329 330 330 330 330 330 330 330 331 332 331 329 327 325 322 322 322 324 325 325 323 323 324
353 352 352 352 351 351 350 348 348 347 347 348 347 347 347 347 347 346 345 345 344 344 344 345 346 344 343 343 342 342 342 341 338 335 333 331 331 330 331 331 332 332 332 332 332 331 331 331 331 330 328 325 323 322 321 322 322 322 323 324 324 323 324
352 350 350 349 349 349 349 347 346 346 346 347 346 346 346 346 345 344 343 343 343 343 344 345 344 343 343 343 342 342 339 336 334 334 333 331 331 331 332 332 332 331 330 329 328 327 327 327 326 325 324 323 322 321 322 322 322 322 322 323 323 323 324
350 348 349 348 347 348 347 345 345 345 345 345 345 345 345 345 344 343 342 342 342 342 344 344 343 343 342 341 341 339 336 334 335 336 336 334 332 331 330 329 328 327 325 324 324 324 323 323 323 323 323 323 322 322 322 322 322 322 322 322 323 323 324
347 347 348 347 347 347 346 345 344 344 344 344 345 344 344 343 343 342 341 342 342 343 344 343 342 342 340 339 339 338 337 336 336 336 336 334 331 328 327 326 326 325 324 324 324 324 324 324 324 323 323 323 323 322 322 323 323 322 322 322 322 322 322
345 345 345 345 346 347 346 345 344 343 343 343 343 343 342 342 342 342 343 344 344 343 342 340 339 339 338 338 337 335 334 333 330 330 330 328 327 327 327 326 325 324 323 324 324 324 324 324 324 324 324 324 323 323 322 323 322 322 322 322 322 321 321
343 344 344 344 345 346 346 345 344 344 343 343 342 342 342 342 342 343 344 345 344 342 339 337 336 336 335 333 330 328 328 328 327 327 326 326 326 327 326 325 324 323 323 324 324 324 324 324 325 325 325 324 323 322 322 322 322 322 322 322 322 321 321
342 343 343 343 344 345 345 344 343 342 342 341 341 340 340 340 340 339 340 340 339 338 336 334 333 331 329 328 325 324 325 326 327 327 326 326 326 326 325 325 323 322 322 323 323 324 325 325 325 324 323 323 322 322 322 322 322 322 322 322 321 320 319
343 342 342 343 344 344 343 341 340 340 339 339 339 339 338 338 338 337 336 336 336 336 334 332 331 328 327 327 326 324 324 326 327 327 326 326 326 325 324 323 322 322 323 323 323 324 325 325 323 322 322 322 322 322 322 321 321 322 322 321 320 319 318
343 343 343 343 343 342 341 340 339 339 338 338 337 337 336 336 336 336 336 335 335 334 332 331 329 328 327 327 326 325 325 325 325 324 323 323 322 322 321 320 321 323 323 323 322 322 322 322 321 320 320 321 322 322 321 321 322 322 321 320 318 318 318
343 343 343 342 342 341 341 340 339 339 338 337 337 336 335 335 333 332 332 332 331 330 331 330 329 328 328 327 326 326 326 324 321 320 319 319 320 321 321 321 322 321 320 321 321 319 319 319 318 318 318 319 321 322 321 321 321 320 319 318 318 318 318
343 342 342 341 341 341 340 340 339 339 338 337 337 336 335 334 333 332 331 331 330 330 330 329 327 327 328 327 326 326 325 322 319 318 318 319 321 322 322 323 323 321 319 319 318 317 316 316 316 316 317 317 319 321 322 320 319 317 317 318 318 318 318
Wind_Speed
11 9 8 7 7 7 7 9 12 13 14 16 16 16 16 17 17 17 18 18 17 16 14 12 10 10 10 10 9 9 7 6 6 6 5 5 4 4 3 2 2 1 1 4 6 4 6 7 9 9 8 7 4 3 2 2 2 2 2 2 2 3 3
10 9 8 7 7 7 7 10 13 14 15 15 16 17 17 17 18 18 17 16 15 15 14 12 12 12 10 9 9 8 7 7 7 5 3 4 4 3 2 1 3 2 4 5 6 9 8 7 6 5 3 2 2 2 2 2 2 2 3 3 4 4 4
10 9 9 8 7 7 8 10 13 15 16 16 17 17 18 19 19 19 17 15 14 14 15 14 13 11 10 10 10 10 8 8 7 5 4 5 4 3 2 2 2 1 4 4 8 9 6 4 2 2 1 1 3 2 2 3 3 4 4 5 5 5 5
10 9 9 8 8 8 8 10 13 14 16 18 18 18 18 18 18 18 16 16 16 16 15 14 12 12 12 12 11 10 8 8 7 6 6 5 4 3 3 1 2 2 2 6 8 6 3 3 2 3 4 4 2 0 2 3 4 5 4 4 4 4 5
10 9 8 7 7 7 7 9 12 15 16 17 18 18 18 18 18 18 17 16 16 15 13 13 13 14 13 11 10 9 8 9 8 6 6 5 4 2 1 1 2 1 5 6 4 3 3 2 2 2 2 1 1 2 3 4 4 3 2 3 4 6 7
9 9 8 8 7 7 7 9 13 17 18 18 19 20 20 20 20 19 17 16 16 14 13 15 16 14 12 12 12 11 11 9 8 6 4 3 3 2 1 4 4 2 7 5 2 2 2 1 2 2 1 2 1 2 3 4 3 3 3 5 7 9 9
9 9 9 9 8 8 8 10 14 17 19 20 21 22 22 22 21 20 18 17 16 15 15 15 15 13 12 13 13 12 11 8 6 6 4 2 2 0 3 5 3 4 6 2 0 1 2 2 2 2 2 2 1 3 4 5 5 5 5 7 8 9 9
10 10 10 10 10 10 8 9 14 18 20 21 22 22 22 22 22 20 19 18 17 16 15 15 14 13 13 13 12 11 9 8 7 6 4 3 2 1 2 3 2 2 1 1 2 2 2 2 2 2 2 4 5 5 5 6 6 6 7 9 9 9 9
11 11 11 11 11 9 9 12 17 20 21 21 22 23 23 23 23 21 20 18 17 16 16 15 13 12 13 13 11 9 9 9 8 6 5 2 2 2 1 3 2 1 1 2 2 2 2 2 3 5 7 8 7 7 7 7 6 7 8 10 11 11 11
11 11 10 11 10 9 10 14 17 18 19 19 21 23 23 24 23 22 21 20 17 16 17 16 15 14 14 13 10 8 10 10 7 6 5 2 0 1 2 4 2 2 3 3 2 3 4 5 7 8 10 10 9 8 8 9 10 9 9 11 12 13 13
11 11 10 10 10 10 11 13 13 15 17 18 20 22 24 24 23 22 22 20 18 17 17 17 16 14 13 11 10 8 8 8 7 6 4 2 1 3 3 3 3 4 5 5 6 7 8 9 10 11 11 11 10 10 10 11 11 12 13 13 14 13 14
10 11 11 11 11 11 11 11 11 14 17 18 20 22 24 24 23 23 22 21 20 19 18 17 15 14 12 11 10 9 6 6 7 5 3 2 3 3 3 3 5 6 7 8 9 10 10 11 11 11 11 11 11 12 12 13 13 14 14 15 15 15 14
11 11 11 11 11 11 12 11 10 13 16 18 21 23 25 25 25 24 23 22 22 22 20 18 16 14 13 12 10 9 7 6 6 4 3 3 4 4 4 6 7 8 8 9 9 10 11 12 12 12 12 13 13 14 14 14 14 14 14 15 16 15 15
13 13 11 10 11 12 13 12 10 12 16 19 22 24 26 26 27 26 25 24 24 23 21 19 16 15 15 13 11 10 9 7 6 4 4 4 5 5 7 8 9 9 9 9 10 11 12 12 13 13 13 14 14 15 15 15 15 15 16 17 16 16 17
13 14 12 11 12 13 13 12 11 12 16 20 23 25 26 27 27 26 25 25 25 24 23 20 18 16 16 14 12 11 10 8 7 6 5 5 6 6 8 9 9 9 9 10 11 11 11 12 13 12 13 13 14 14 15 15 15 15 16 16 15 14 15
11 12 12 12 12 13 13 12 12 13 17 20 24 26 26 27 28 26 25 26 26 25 23 21 18 17 16 14 13 12 12 10 9 8 7 6 7 7 8 8 8 8 9 10 10 10 10 10 11 11 13 14 14 14 14 14 14 14 13 12 11 10 11
10 10 10 11 12 12 12 12 12 13 16 20 25 28 28 29 29 26 25 26 27 26 24 22 20 19 18 16 14 12 13 13 11 9 7 7 7 7 7 8 8 9 9 10 10 10 10 11 12 13 13 14 14 14 13 14 13 11 10 11 11 12 13
10 8 8 9 11 12 11 11 10 10 13 18 24 28 29 29 28 25 24 27 28 27 25 24 22 20 19 17 15 13 13 13 12 9 7 7 7 6 7 7 8 9 9 9 10 10 11 12 12 12 12 12 13 12 12 12 11 10 12 13 14 14 14
9 8 8 10 11 12 11 11 12 15 18 20 23 26 28 29 28 26 26 27 27 27 26 25 23 22 19 17 16 14 13 13 12 9 8 7 7 6 6 7 7 7 7 8 9 10 10 10 10 11 11 10 10 11 11 12 12 13 14 15 14 14 13
9 8 8 9 11 12 11 12 16 20 23 24 25 25 25 27 29 30 28 26 26 28 28 26 23 22 20 18 17 15 13 12 11 10 9 7 6 5 6 6 5 5 6 6 6 7 8 9 10 10 9 10 11 12 13 13 13 13 13 13 14 14 14
8 9 9 10 11 12 13 16 18 19 21 24 24 22 23 25 26 28 27 25 25 27 26 25 25 24 21 19 17 15 14 13 10 9 8 5 4 4 3 2 3 4 4 4 5 7 8 9 10 10 10 11 12 13 13 13 13 12 13 13 14 15 14
8 9 9 12 14 15 18 22 23 23 24 26 24 23 25 26 25 25 26 25 25 25 25 25 23 19 16 14 13 12 11 10 10 9 7 4 4 3 1 2 3 4 4 5 7 8 9 10 10 10 11 11 12 12 13 13 12 12 13 13 13 13 14
9 10 11 16 21 23 26 28 28 28 28 27 26 25 26 27 26 26 25 23 22 21 21 20 15 12 13 13 11 9 5 6 8 7 5 4 3 1 1 3 4 4 5 7 8 9 10 11 10 10 11 12 12 12 13 14 13 12 11 10 11 12 12
9 12 15 19 23 24 25 27 28 29 29 27 27 27 26 26 26 24 21 19 18 16 15 15 14 15 17 15 11 9 7 7 9 7 4 3 2 2 3 3 4 5 7 9 10 11 12 12 11 11 11 12 12 13 13 13 11 10 9 9 10 12 11
8 13 19 23 26 25 25 27 27 26 25 26 26 26 25 25 24 21 19 17 16 15 13 15 16 17 16 12 9 8 8 8 9 5 3 2 1 3 3 4 5 7 8 10 11 12 14 14 12 12 11 11 12 12 11 11 11 11 11 11 12 13 11
10 13 18 22 26 27 26 26 25 23 23 24 25 24 22 22 21 19 18 16 15 14 14 15 16 15 12 9 7 7 7 7 6 3 1 1 3 4 4 5 6 6 8 10 11 13 14 14 13 13 12 11 10 9 10 12 14 14 12 13 14 12 10
16 18 19 20 22 23 22 20 21 21 21 21 21 20 20 21 20 17 15 14 13 13 14 15 15 13 11 8 8 9 9 7 3 1 1 2 3 4 5 6 7 9 11 13 14 15 15 14 13 12 11 10 9 10 12 14 15 14 14 15 15 14 12
17 18 19 20 21 21 21 17 16 17 16 16 17 17 17 19 17 14 13 13 13 13 13 12 10 9 9 9 10 10 7 3 2 1 0 1 3 5 8 10 12 13 12 11 11 11 11 10 10 9 9 10 11 13 15 15 15 15 16 16 17 16 16
16 15 17 18 18 19 22 19 16 15 15 14 15 14 14 14 13 12 11 12 13 12 10 8 7 8 10 10 9 6 3 2 2 1 1 2 6 9 11 11 8 6 7 7 8 9 8 8 8 9 11 13 15 16 17 17 17 16 16 17 17 18 18
15 16 17 18 17 19 21 21 17 15 14 13 13 13 13 13 12 12 11 11 12 11 9 9 9 10 9 7 4 2 0 2 3 4 5 6 8 7 5 6 8 9 10 9 9 9 9 9 11 12 14 16 18 19 20 19 18 16 17 17 17 17 17
15 17 18 19 19 19 20 21 19 17 14 13 13 12 12 12 13 12 12 12 13 12 11 10 9 8 6 3 1 1 4 6 6 7 7 5 3 5 9 10 11 12 11 10 10 11 12 13 14 16 17 19 20 22 22 21 19 18 18 18 17 17 17
15 19 21 20 20 21 22 22 21 19 17 15 13 12 11 12 13 13 12 12 13 12 11 10 7 5 4 3 3 4 5 5 6 6 6 7 7 9 10 12 13 13 11 11 12 13 14 15 17 18 19 20 21 22 23 22 21 21 20 19 18 19 20
13 17 20 21 22 24 25 23 21 19 18 16 14 13 13 13 14 14 13 12 12 11 10 8 6 5 6 7 8 9 9 10 11 10 10 10 9 9 11 13 14 14 12 12 13 13 15 17 18 19 20 21 21 22 22 21 21 21 20 19 20 22 23
14 17 20 21 24 25 24 22 21 19 18 16 15 15 16 16 15 15 14 13 12 11 9 9 9 9 10 11 11 11 10 9 9 10 10 10 10 10 12 13 14 13 11 10 12 15 18 19 19 19 19 19 20 19 19 20 20 19 19 19 20 22 25
16 18 19 20 22 24 24 23 22 21 20 18 18 18 17 17 16 14 14 12 10 8 8 10 11 12 13 12 12 11 9 8 8 9 9 9 9 10 11 11 10 9 9 11 13 15 17 17 16 15 16 16 17 16 17 19 20 18 18 19 20 22 25
18 18 19 21 22 23 24 24 24 24 22 21 20 19 17 16 15 12 11 9 7 6 7 10 11 12 11 10 10 10 8 7 7 8 8 8 9 9 9 9 8 8 11 13 12 10 10 12 13 15 16 17 18 17 17 19 19 17 17 19 21 23 25
19 19 20 23 24 23 23 24 25 24 23 21 20 18 15 14 12 10 8 7 5 5 6 8 10 9 8 8 8 8 6 6 6 7 7 8 8 8 8 9 10 11 11 11 10 10 11 12 14 16 18 20 21 20 18 17 16 16 18 20 22 25 27
21 22 22 24 25 24 23 23 24 23 22 20 18 16 14 12 10 8 6 6 5 6 6 7 8 8 7 7 7 6 5 4 5 6 7 7 7 7 8 11 13 14 12 10 11 13 12 13 16 17 19 21 21 19 16 15 16 18 20 21 24 27 29
Wind_Direction
146 155 156 160 164 161 158 156 153 154 159 161 162 166 164 162 168 172 173 174 175 180 185 190 188 181 175 169 169 170 169 168 161 147 139 141 142 150 151 139 147 159 330 358 26 85 131 131 132 132 130 133 133 125 99 48 9 329 317 316 323 318 305
149 157 161 164 166 159 156 157 154 155 159 160 161 161 160 163 171 175 175 176 176 177 178 175 167 164 162 164 168 166 160 159 156 152 158 157 143 143 158 225 200 188 348 7 84 120 128 124 129 126 120 127 86 56 356 330 319 324 329 323 318 312 306
153 160 165 168 168 161 160 161 158 157 159 162 162 159 160 166 173 176 175 173 171 169 166 164 163 160 154 154 156 152 147 152 158 161 163 152 140 161 203 227 215 295 10 69 119 125 111 84 66 51 70 72 62 49 329 326 327 318 311 308 306 304 310
158 161 164 166 165 162 164 163 159 159 162 164 164 162 164 168 172 172 169 165 161 158 160 162 162 157 152 148 148 148 150 156 163 167 165 164 169 195 212 216 276 303 85 113 124 119 77 39 32 71 100 92 77 121 294 313 308 303 297 297 306 310 316
156 154 155 161 162 162 167 164 160 161 163 163 163 163 164 165 165 164 162 159 157 157 162 165 162 160 162 164 163 162 164 165 169 174 175 189 199 190 160 53 344 269 143 128 123 94 44 17 35 73 136 177 275 251 286 311 306 307 306 308 324 322 316
154 154 157 162 165 168 171 169 167 166 164 163 164 164 162 160 160 160 160 161 161 159 159 161 162 164 170 176 175 172 174 177 178 176 173 192 194 184 265 341 351 161 153 139 117 62 17 320 345 348 226 211 269 266 293 312 305 294 287 298 313 315 313
156 160 161 164 166 171 176 171 169 168 164 161 162 161 159 158 158 161 163 162 161 159 156 159 166 171 175 179 180 178 177 173 168 167 156 142 150 99 335 350 21 145 160 155 218 310 294 266 315 341 174 179 290 289 303 306 293 283 281 288 301 310 313
160 162 164 167 168 170 173 164 159 159 157 156 156 155 154 156 158 161 161 160 161 164 166 171 176 180 182 182 181 178 171 159 154 159 154 162 223 284 3 18 45 149 184 298 308 296 280 257 274 280 286 304 294 278 288 297 292 292 291 288 294 305 308
162 164 165 166 165 163 159 152 149 150 150 150 150 150 151 155 159 162 161 161 164 169 174 176 174 172 173 172 167 160 159 162 163 167 170 184 225 224 329 343 324 273 296 317 324 322 318 316 312 307 311 316 306 287 289 300 305 306 297 289 294 301 302
162 165 166 163 159 153 147 147 146 146 148 148 147 148 151 154 159 162 163 164 167 170 173 170 162 159 163 166 162 153 157 166 171 177 184 188 230 246 310 330 319 297 308 310 307 311 318 317 313 311 310 311 309 302 303 309 310 310 307 302 301 300 299
163 164 165 162 155 148 146 147 148 149 151 151 149 151 154 156 160 162 164 168 172 171 170 169 165 164 165 166 166 163 164 172 179 184 190 203 287 296 299 310 313 311 311 308 307 307 311 312 311 312 312 312 311 307 306 309 307 308 309 308 308 305 301
166 165 165 164 155 149 150 150 150 152 152 152 152 154 158 160 163 165 168 175 180 177 173 173 173 170 166 166 171 175 173 172 181 193 214 242 272 289 290 296 307 312 311 311 314 316 318 321 322 324 323 320 317 313 310 309 307 307 308 309 310 307 303
167 168 167 164 153 148 151 151 152 153 150 149 153 157 160 163 168 171 174 180 184 182 177 176 177 175 173 175 181 188 189 187 195 211 240 254 263 275 287 299 306 312 317 320 323 326 327 329 329 329 327 322 318 316 314 313 311 309 308 309 307 302 298
168 169 166 156 149 151 152 152 155 151 144 145 152 159 163 169 174 177 179 183 183 182 180 178 178 179 179 183 189 196 200 203 211 225 234 242 261 280 296 309 314 317 324 326 325 326 325 326 326 324 322 319 317 317 316 314 312 309 308 307 304 299 297
170 169 163 154 151 154 153 153 156 150 143 145 154 161 167 173 178 179 179 180 180 181 182 182 182 182 182 186 192 199 202 205 211 219 227 244 267 285 299 314 321 321 321 321 321 323 322 321 321 320 321 320 319 319 319 317 317 318 317 313 309 306 305
177 172 165 157 153 155 155 155 157 151 146 150 158 165 170 175 179 179 177 177 179 181 184 186 186 186 186 187 193 202 206 205 207 213 225 248 266 281 300 314 319 318 318 319 319 320 319 319 319 321 322 323 323 323 323 324 327 329 326 322 321 323 322
184 175 164 155 151 153 153 153 155 153 153 159 165 169 174 178 180 178 176 177 180 183 187 190 189 190 192 192 196 205 207 203 204 213 230 248 260 274 294 305 312 315 318 320 320 320 319 321 323 325 325 325 327 329 332 334 335 333 332 335 337 336 334
181 167 152 149 149 150 149 147 148 153 159 166 170 173 177 179 179 178 176 179 185 188 190 192 193 194 195 195 197 201 200 201 205 213 226 239 251 268 287 301 309 313 314 316 318 319 321 324 327 329 331 332 335 339 344 346 344 339 337 336 335 334 334
166 153 146 149 149 145 141 141 149 159 164 168 173 178 180 180 179 180 181 185 190 192 192 194 197 198 197 198 201 204 202 203 207 215 227 238 247 264 289 300 301 305 311 316 319 321 325 331 334 336 338 340 342 342 342 342 340 336 334 332 329 329 329
156 149 141 140 139 135 137 147 160 168 170 172 175 177 180 182 184 186 188 190 192 195 196 197 197 198 199 199 200 205 208 206 211 224 228 231 246 267 287 292 292 308 319 323 328 331 334 337 336 336 336 335 335 336 335 336 337 336 337 335 332 328 325
154 146 136 133 133 136 147 158 165 170 174 178 179 176 178 182 186 188 190 192 194 197 198 198 199 200 200 200 201 204 204 202 213 225 219 221 257 271 278 289 309 326 327 329 337 338 336 332 325 321 323 325 330 335 336 339 341 340 339 338 336 333 330
155 145 138 138 140 148 159 165 169 173 178 183 182 181 183 186 188 188 190 193 196 198 200 201 198 193 192 196 200 200 200 207 214 208 198 227 262 254 256 340 337 333 327 329 333 329 322 316 312 313 319 325 331 333 334 336 339 338 336 336 336 336 335
149 142 137 142 150 159 165 168 172 176 182 186 187 188 190 190 191 192 192 194 195 196 198 194 181 172 183 191 193 198 222 256 242 214 200 219 224 180 15 340 328 319 318 319 316 309 303 302 307 316 322 326 329 328 326 331 339 342 340 338 337 334 331
142 138 135 141 150 158 164 169 174 179 184 188 193 196 196 193 193 194 191 190 189 187 184 174 163 177 189 185 184 195 209 239 244 231 195 174 153 34 343 319 308 305 313 313 303 296 296 298 305 317 323 324 325 326 327 333 344 349 341 335 332 328 322
127 127 133 142 152 160 166 170 173 177 181 186 193 199 199 195 193 190 186 185 183 175 166 160 166 182 188 180 182 189 186 200 214 201 147 130 16 325 299 296 306 309 313 308 298 297 299 298 300 310 319 323 327 333 339 343 345 341 330 327 331 328 321
121 124 131 141 152 160 164 166 168 171 178 186 192 195 196 192 188 185 183 181 174 160 148 149 158 166 167 170 178 172 163 174 183 166 118 314 306 296 285 296 308 312 312 304 299 301 301 297 297 304 316 328 336 344 348 343 340 335 325 323 329 330 324
114 122 128 134 143 149 152 156 163 168 176 185 187 187 187 184 182 180 175 165 152 142 137 140 148 149 144 150 160 155 154 164 174 180 329 317 308 296 295 306 308 303 301 301 304 309 309 305 305 310 324 339 346 347 346 344 342 336 325 320 322 323 319
108 113 121 126 132 136 136 138 146 153 163 172 173 174 178 177 172 165 155 143 135 138 141 141 142 140 136 142 148 147 148 174 234 277 349 340 313 306 308 310 306 302 304 311 323 333 332 327 326 329 337 344 345 344 343 343 342 336 326 321 320 318 313
109 112 118 120 124 131 131 128 129 137 148 158 161 162 166 165 155 145 142 142 141 142 140 135 137 139 136 136 139 139 150 250 272 286 295 307 311 312 315 321 328 344 2 11 13 8 1 353 348 341 336 338 340 339 336 334 333 331 327 325 323 318 311
106 111 115 115 120 128 127 125 125 131 141 152 156 159 163 162 153 145 144 146 147 146 141 140 141 135 125 123 132 139 277 308 309 295 285 295 313 327 358 35 48 46 37 29 23 16 8 359 350 341 334 332 332 330 329 327 326 326 328 328 326 321 313
108 110 111 113 119 126 127 127 129 132 137 146 151 154 159 159 153 146 143 143 146 146 141 136 131 120 108 103 127 307 315 319 320 309 300 309 359 56 68 58 45 36 29 22 15 9 1 352 344 338 332 327 324 324 325 325 322 323 326 326 324 320 315
105 109 110 113 118 124 127 128 129 132 135 140 144 145 147 148 140 131 131 138 139 134 124 116 110 100 75 48 36 23 15 28 47 55 58 65 71 69 57 42 33 28 22 12 5 358 349 341 336 331 326 323 321 323 325 324 321 320 321 321 318 317 317
107 110 113 116 119 121 122 122 123 126 128 130 131 128 124 122 116 111 114 119 119 116 109 97 86 70 60 65 70 71 73 75 76 74 65 56 52 48 39 30 22 16 11 7 1 351 341 335 328 322 320 319 321 323 324 322 319 318 318 319 319 319 322
111 112 113 116 118 117 116 117 116 116 115 115 116 115 112 110 109 110 110 108 110 115 104 83 78 83 85 84 79 74 74 73 65 56 48 44 44 38 28 19 12 9 12 7 350 336 331 328 324 322 321 320 319 320 318 316 316 317 317 318 321 324 326
114 114 113 114 115 116 117 117 116 113 110 111 115 115 112 110 111 112 111 110 116 121 104 87 92 97 91 80 69 64 67 67 56 49 48 50 44 29 17 12 10 6 359 350 341 333 328 325 326 331 330 322 316 314 310 308 312 317 319 320 324 327 328
116 114 114 115 115 116 117 117 117 116 113 115 118 117 113 110 110 111 113 116 123 127 113 101 100 98 87 74 66 64 64 63 55 48 44 38 28 19 16 19 18 2 346 341 342 342 335 331 334 337 332 322 315 311 308 307 312 318 323 327 330 331 331
122 120 121 121 119 116 116 117 119 119 119 121 122 119 113 110 107 106 111 119 124 134 129 112 103 104 101 89 81 77 75 69 52 33 24 21 22 23 17 7 1 358 355 352 352 354 350 342 336 333 329 323 316 311 309 313 321 327 330 333 335 335 334
123 124 125 124 121 120 120 121 122 123 124 126 124 120 115 112 110 112 120 124 126 132 133 123 117 117 113 106 103 97 83 58 32 21 21 24 25 16 358 344 340 345 357 7 1 353 348 340 333 332 332 330 321 312 313 327 335 335 335 337 338 336 336